[[{"header":{"parameterUnit":"m.s-1","parameterCategory":1,"la1":30.2991,"la2":30.254,"lo1":-89.0895,"lo2":-89.0444,"dy":0.0017,"dx":0.0017,"nx":28,"ny":28,"refTime":"2025-08-13T09:00:00:Z","depth":0,"parameterNumber":2,"parameterNumberName":"U-component_of_WINDS"},"data":[0,0,0,0,0,0,0,0,0,0,0,0,0,0,0,0,0,0,0,0,0,0,0,0,0,0,0,0,0,0,0,0,0,0,0,0,0,0,0,0,0,0,0,0,0,0,0,0,0,0,0,0,0,0,0,0,0,0,0.9719,0.972,0,0.9749,0.9749,0.975,0.9723,0.9721,0.972,0.9719,0.9748,0.975,0.9752,0,0,0,0,0,0,0,0,0,0,0,0,0,0.9641,0.9643,0.9719,0.972,0.972,0.9749,0.9749,0.975,0.9723,0.9721,0.972,0.9719,0.9748,0.975,0.9752,0,0,0,0,0,0,0,0,0,0,0,0,0,0.9673,0.9643,0.9719,0.971,0.971,0.9749,0.9749,0.975,0.9723,0.9721,0.972,0.9718,0.9747,0.975,0.9752,0.9802,0,0,0.9761,0.9762,0,0,0,0,0,0,0,0,0.9671,0.9676,0.9711,0.9711,0.971,0.973,0.9732,0.9767,0.9723,0.9718,0.9719,0.9717,0.9744,0.9747,0.9756,0.9803,0.9804,0.9761,0.9763,0.9764,0.9764,0,0,0,0,0,0,0,0.9669,0.9675,0.9731,0.9712,0.9711,0.9705,0.9708,0.9739,0.974,0.9718,0.9716,0.972,0.9743,0.9753,0.9756,0.9805,0.9761,0.9763,0.9765,0.9766,0.9899,0.9901,0,0,0,0,0,0,0.9668,0.9673,0.973,0.9732,0.9687,0.9708,0.9711,0.9726,0.9739,0.974,0.9722,0.9719,0.9749,0.9753,0.9757,0.9819,0.9764,0.9766,0.9768,0.9897,0.9899,0.9901,0,0,0,0,0,0,0.9666,0.9673,0.9729,0.9702,0.9709,0.9711,0.9728,0.9727,0.9737,0.9742,0.9742,0.9732,0.9748,0.9753,0.9792,0.982,0.9767,0.977,0.9895,0.9898,0.99,0.9941,0,0,0,0,0,0,0.9664,0.9673,0.9691,0.9703,0.971,0.9763,0.9729,0.9729,0.9742,0.9739,0.9751,0.9752,0.9747,0.9788,0.9795,0.9822,0.9772,0.9892,0.9896,0.9899,0.9938,0.9945,0.9952,0,0,0,0,0,0.9662,0.97,0.9692,0.9699,0.9733,0.9765,0.9769,0.9763,0.9744,0.9763,0.9767,0.9751,0.9815,0.9792,0.9799,0.9828,0.9891,0.9895,0.9899,0.9934,0.9944,0.9952,0,0,0,0,0,0,0.969,0.9701,0.9693,0.9736,0.975,0.976,0.9784,0.9773,0.9792,0.9788,0.978,0.9783,0.9825,0.983,0.9804,0.9879,0.985,0.9856,0.9874,0.9883,0.989,0.9889,0.9774,0,0,0,0,0,0.9702,0.9727,0.9735,0.9773,0.978,0.9781,0.9794,0.9789,0.9803,0.9808,0.9814,0.9828,0.9852,0.9867,0.9889,0.9938,0.9942,0.9961,0.9969,0.9974,0.998,1.001,1.002,0.9916,0.9916,0.9915,0,0,0.9726,0.9735,0.9751,0.9779,0.9789,0.9816,0.9786,0.9814,0.9835,0.9812,0.9851,0.9856,0.9871,0.9916,0.9936,0.9922,1.001,0.998,0.9985,0.9987,1.0016,1.0026,1.0035,0.9918,0.9918,0.9917,0,0,0.9784,0.9792,0.9827,0.9838,0.9854,0.9855,0.9863,0.9876,0.9879,0.9917,0.9903,0.9926,0.9966,0.9979,0.999,1.0057,1.0045,1.0064,1.0102,1.0131,1.014,1.0147,1.0174,1.0183,1.007,1.007,1.007,0,0.9812,0.9851,0.9845,0.9877,0.9891,0.9873,0.9909,0.992,0.9942,0.9953,0.9936,0.9989,0.9997,1.0047,1.0064,1.0072,1.0084,1.0063,1.0139,1.0146,1.0153,1.0179,1.0189,1.0072,1.0072,1.0072,1.0071,0,0.9886,0.9914,0.994,0.9964,0.9981,1.0014,1.0014,1.0032,1.0026,1.0029,1.007,1.008,1.0105,1.0116,1.011,1.0166,1.0157,1.014,1.0111,1.0166,1.019,1.0199,1.0076,1.0075,1.0074,1.0073,0,0,0.9962,0.9985,0.9995,1.0007,1.0025,1.0047,1.0081,1.0106,1.0123,1.014,1.0169,1.0205,1.019,1.0204,1.0199,1.0224,1.0281,1.0204,1.0205,1.0221,1.0348,1.0363,1.0374,1.0272,1.0274,1.0276,1.0348,0,1.0023,1.0082,1.0079,1.0135,1.0163,1.0148,1.0178,1.0193,1.0197,1.0222,1.0226,1.0253,1.023,1.0238,1.0263,1.0269,1.0307,1.0263,1.0302,1.0303,1.0301,1.0386,1.0401,1.0468,1.0357,1.0358,1.0359,0,1.0102,1.0124,1.0183,1.02,1.0212,1.0238,1.0264,1.0287,1.0305,1.0306,1.0323,1.0315,1.0351,1.032,1.0371,1.0341,1.0357,1.0363,1.0365,1.037,1.0336,1.0396,1.0489,1.0501,1.0374,1.0372,1.0371,0,1.0155,1.0199,1.0241,1.0251,1.0272,1.0292,1.0302,1.0318,1.0335,1.0357,1.0369,1.0394,1.0409,1.0429,1.0429,1.0406,1.0482,1.045,1.0486,1.0486,1.0503,1.0503,1.0603,1.0509,1.0509,1.0509,1.0509,0,1.0225,1.0262,1.0266,1.0292,1.0334,1.0331,1.0373,1.0381,1.0396,1.0425,1.0412,1.0439,1.0436,1.0464,1.0464,1.0508,1.0514,1.0517,1.0518,1.052,1.052,1.0532,1.0528,1.0512,1.0511,1.0511,1.051,0,1.0292,1.0295,1.0341,1.0358,1.0363,1.0394,1.0409,1.0435,1.0439,1.0475,1.0484,1.049,1.0523,1.0525,1.0561,1.0561,1.0616,1.0609,1.061,1.061,1.0647,1.0645,1.0761,1.0777,1.067,1.0671,1.0672,0,1.0337,1.0366,1.0388,1.0406,1.0418,1.0447,1.0466,1.0464,1.0484,1.0509,1.0532,1.0563,1.0589,1.0641,1.065,1.0679,1.0674,1.0713,1.0678,1.0682,1.0679,1.0678,1.0683,1.072,1.0721,1.0722,1.0723,0,1.0418,1.042,1.0446,1.0476,1.0498,1.052,1.0541,1.0557,1.0558,1.0581,1.0615,1.0635,1.0674,1.0707,1.0735,1.0746,1.0736,1.0734,1.0744,1.0748,1.0749,1.0753,1.0632,1.0732,1.0731,1.073,1.073,1.0729,1.0478,1.0505,1.0525,1.0556,1.0572,1.0593,1.0619,1.0628,1.0656,1.0689,1.0686,1.0725,1.0745,1.0783,1.0796,1.0827,1.0814,1.0828,1.0832,1.0837,1.0842,1.0743,1.0832,1.0832,1.0831,1.0831,1.0831,0,1.0561,1.0574,1.0603,1.0634,1.066,1.0649,1.0672,1.0695,1.0729,1.0749,1.0775,1.0816,1.0848,1.086,1.0892,1.0915,1.0911,1.0923,1.0923,1.0927,1.085,1.084,1.0926,1.0926,1.0926,1.0926,1.0926,1.0926,1.0608,1.0654,1.0658,1.0713,1.0725,1.0764,1.0779,1.0799,1.0815,1.0862,1.0889,1.0897,1.0915,1.0949,1.0979,1.0982,1.0995,1.101,1.1012,1.0941,1.0931,1.0922,1.0912,1.1012,1.1013,1.1086,1.1086,1.1087]},{"header":{"parameterUnit":"m.s-1","parameterCategory":1,"la1":30.2991,"la2":30.254,"lo1":-89.0895,"lo2":-89.0444,"dy":0.0017,"dx":0.0017,"nx":28,"ny":28,"refTime":"2025-08-13T09:00:00:Z","depth":0,"parameterNumber":3,"parameterNumberName":"V-component_of_WINDS"},"data":[0,0,0,0,0,0,0,0,0,0,0,0,0,0,0,0,0,0,0,0,0,0,0,0,0,0,0,0,0,0,0,0,0,0,0,0,0,0,0,0,0,0,0,0,0,0,0,0,0,0,0,0,0,0,0,0,0,0,-0.2636,-0.2634,0,-0.2505,-0.2503,-0.2502,-0.2471,-0.2472,-0.2473,-0.2474,-0.2332,-0.2327,-0.2323,0,0,0,0,0,0,0,0,0,0,0,0,0,-0.2851,-0.2847,-0.2636,-0.2634,-0.2632,-0.2505,-0.2503,-0.2501,-0.2471,-0.2472,-0.2473,-0.2475,-0.2333,-0.2328,-0.2322,0,0,0,0,0,0,0,0,0,0,0,0,0,-0.2743,-0.2846,-0.2636,-0.2602,-0.2598,-0.2505,-0.2503,-0.2501,-0.2471,-0.2472,-0.2474,-0.2475,-0.2335,-0.2328,-0.2322,-0.2251,0,0,-0.23,-0.2297,0,0,0,0,0,0,0,0,-0.2749,-0.2735,-0.2609,-0.2604,-0.2599,-0.2506,-0.2527,-0.2417,-0.2471,-0.2519,-0.2474,-0.2476,-0.2388,-0.2377,-0.2349,-0.2244,-0.2238,-0.23,-0.2295,-0.2292,-0.229,0,0,0,0,0,0,0,-0.2756,-0.274,-0.2584,-0.2607,-0.2601,-0.2591,-0.2577,-0.2506,-0.2447,-0.2515,-0.2512,-0.2498,-0.2386,-0.2356,-0.2345,-0.2236,-0.23,-0.2294,-0.2289,-0.2287,-0.2064,-0.2062,0,0,0,0,0,0,-0.2771,-0.2747,-0.2588,-0.258,-0.2679,-0.2586,-0.257,-0.2534,-0.2448,-0.2436,-0.2497,-0.2497,-0.2367,-0.2354,-0.234,-0.225,-0.2292,-0.2286,-0.2282,-0.2065,-0.2063,-0.2061,0,0,0,0,0,0,-0.2776,-0.2757,-0.2593,-0.2662,-0.2641,-0.2581,-0.2541,-0.2531,-0.2501,-0.2434,-0.2423,-0.2477,-0.2368,-0.235,-0.2273,-0.2244,-0.2283,-0.2276,-0.2067,-0.2065,-0.2062,-0.2069,0,0,0,0,0,0,-0.2782,-0.2759,-0.2733,-0.2662,-0.2637,-0.2531,-0.2539,-0.2528,-0.249,-0.2489,-0.2413,-0.2402,-0.2367,-0.2284,-0.2266,-0.2235,-0.2271,-0.207,-0.2066,-0.2063,-0.2071,-0.2067,-0.2064,0,0,0,0,0,-0.279,-0.2739,-0.2732,-0.2713,-0.2605,-0.2529,-0.2515,-0.2478,-0.2488,-0.246,-0.2417,-0.2404,-0.2251,-0.2276,-0.2256,-0.2223,-0.2071,-0.2067,-0.2063,-0.2073,-0.2068,-0.2064,0,0,0,0,0,0,-0.2806,-0.2729,-0.2721,-0.2646,-0.2595,-0.2524,-0.2488,-0.2475,-0.2417,-0.2418,-0.2373,-0.2356,-0.2282,-0.2245,-0.2274,-0.2149,-0.2161,-0.2153,-0.2175,-0.217,-0.2166,-0.2175,-0.2265,0,0,0,0,0,-0.2801,-0.2749,-0.2684,-0.2625,-0.26,-0.2549,-0.2514,-0.2491,-0.2435,-0.2412,-0.2363,-0.2307,-0.2246,-0.2206,-0.2146,-0.2067,-0.2048,-0.2034,-0.203,-0.2027,-0.202,-0.1972,-0.1964,-0.2048,-0.2048,-0.2049,0,0,-0.279,-0.2742,-0.2711,-0.2627,-0.2584,-0.2528,-0.253,-0.2471,-0.2428,-0.2402,-0.2327,-0.2289,-0.2223,-0.2144,-0.2106,-0.211,-0.1993,-0.2022,-0.2021,-0.2014,-0.1967,-0.1959,-0.1952,-0.2046,-0.2046,-0.2047,0,0,-0.2741,-0.2701,-0.2645,-0.2603,-0.254,-0.2506,-0.2493,-0.2425,-0.2399,-0.2324,-0.2302,-0.2249,-0.2146,-0.2099,-0.2062,-0.1995,-0.1979,-0.1977,-0.1956,-0.191,-0.1903,-0.1897,-0.187,-0.1861,-0.197,-0.197,-0.197,0,-0.2734,-0.2651,-0.2618,-0.256,-0.2522,-0.2499,-0.2441,-0.2401,-0.232,-0.2293,-0.23,-0.2169,-0.2123,-0.2031,-0.2015,-0.1987,-0.1967,-0.1984,-0.1907,-0.1901,-0.1894,-0.1868,-0.1859,-0.197,-0.197,-0.197,-0.197,0,-0.2645,-0.2588,-0.2551,-0.2476,-0.2434,-0.2376,-0.2331,-0.2293,-0.2273,-0.2238,-0.216,-0.2104,-0.2032,-0.2009,-0.1989,-0.1914,-0.1918,-0.1917,-0.1928,-0.1887,-0.1861,-0.1851,-0.197,-0.197,-0.197,-0.197,0,0,-0.2599,-0.2508,-0.2495,-0.246,-0.2388,-0.2342,-0.2282,-0.2214,-0.218,-0.2126,-0.2072,-0.1985,-0.1984,-0.1941,-0.1915,-0.1876,-0.1823,-0.1879,-0.1876,-0.1868,-0.1733,-0.1732,-0.1722,-0.1814,-0.1812,-0.181,-0.1738,0,-0.2539,-0.2435,-0.2403,-0.2314,-0.2259,-0.2237,-0.2184,-0.2133,-0.2099,-0.2045,-0.2006,-0.1944,-0.1948,-0.1922,-0.1882,-0.1838,-0.1795,-0.1843,-0.1759,-0.1757,-0.1774,-0.1709,-0.1708,-0.1642,-0.1728,-0.1726,-0.1725,0,-0.2454,-0.24,-0.2307,-0.2241,-0.2217,-0.2171,-0.2105,-0.2055,-0.1996,-0.1973,-0.1927,-0.1904,-0.1838,-0.1855,-0.1761,-0.1795,-0.1759,-0.1732,-0.1728,-0.1716,-0.1736,-0.1692,-0.1621,-0.161,-0.1709,-0.1711,-0.1712,0,-0.2427,-0.2331,-0.2262,-0.2233,-0.2156,-0.2123,-0.2089,-0.2031,-0.1992,-0.1934,-0.1907,-0.1842,-0.1805,-0.1753,-0.1712,-0.1729,-0.162,-0.1635,-0.1596,-0.1597,-0.1572,-0.1574,-0.1491,-0.1554,-0.1555,-0.1555,-0.1555,0,-0.2361,-0.2304,-0.2249,-0.2206,-0.214,-0.2104,-0.2039,-0.2003,-0.1952,-0.1899,-0.1876,-0.1826,-0.1777,-0.172,-0.1688,-0.1613,-0.1597,-0.1574,-0.1566,-0.1575,-0.1577,-0.1548,-0.155,-0.1552,-0.1553,-0.1553,-0.1554,0,-0.2318,-0.228,-0.2203,-0.2137,-0.2119,-0.2073,-0.2014,-0.197,-0.1936,-0.187,-0.1852,-0.1797,-0.1729,-0.1684,-0.1596,-0.1574,-0.1492,-0.1486,-0.1512,-0.1508,-0.1471,-0.1474,-0.1364,-0.1346,-0.1425,-0.1424,-0.1424,0,-0.2277,-0.2233,-0.2163,-0.2127,-0.2094,-0.2037,-0.1997,-0.1959,-0.1918,-0.1847,-0.1811,-0.1742,-0.1684,-0.1576,-0.1526,-0.1458,-0.1448,-0.1415,-0.1438,-0.1447,-0.1444,-0.1446,-0.1439,-0.141,-0.1409,-0.1409,-0.1408,0,-0.2207,-0.219,-0.2136,-0.2074,-0.2028,-0.1977,-0.1926,-0.1897,-0.185,-0.1805,-0.1736,-0.1692,-0.1604,-0.1534,-0.1462,-0.1423,-0.1406,-0.1402,-0.1389,-0.1396,-0.1412,-0.1399,-0.1499,-0.1404,-0.1404,-0.1405,-0.1405,-0.1405,-0.2161,-0.212,-0.2065,-0.2004,-0.1962,-0.1915,-0.187,-0.1831,-0.1774,-0.1701,-0.1681,-0.1609,-0.1549,-0.1451,-0.1411,-0.1351,-0.1355,-0.1337,-0.1331,-0.1326,-0.1324,-0.1425,-0.1338,-0.1338,-0.1338,-0.1339,-0.1339,0,-0.2087,-0.2051,-0.1996,-0.1926,-0.1877,-0.1871,-0.1813,-0.1772,-0.171,-0.1657,-0.1601,-0.1521,-0.1454,-0.1399,-0.1329,-0.1292,-0.1282,-0.1274,-0.1274,-0.1265,-0.1327,-0.1344,-0.1283,-0.1283,-0.1283,-0.1283,-0.1283,-0.1283,-0.2043,-0.1972,-0.1949,-0.1856,-0.1819,-0.1751,-0.1718,-0.1673,-0.163,-0.1543,-0.1488,-0.1455,-0.1399,-0.1325,-0.1262,-0.1247,-0.1221,-0.1214,-0.1197,-0.1255,-0.1261,-0.1267,-0.1282,-0.1209,-0.1209,-0.114,-0.1139,-0.1138]}]]